User: anonymous   Login
Location: Caltech
(34.1382°N, 118.1253°W)
Time: 08:38:17
(UTC-07:00)
Language:

Cosmos 1833 - Orbit

View from above orbital plane
View from above orbital plane
View from above satellite
View from above satellite

Ground track
Ground track

The orbit data is extracted from the following two-line orbital elements,

1 17589U 87027A   15183.44473904  .00000305  00000-0  18967-3 0  9999
2 17589 070.9184 248.7993 0016574 310.7711 130.5247 14.12864204459211
Epoch (UTC): 02 July 2015 10:40:25
Eccentricity: 0.0016574
inclination: 70.9184°
perigee height: 837 km
apogee height: 861 km
right ascension of ascending node: 248.7993°
argument of perigee: 310.7711°
revolutions per day: 14.12864204
mean anomaly at epoch: 130.5247°
orbit number at epoch: 45921

The dashed part of the orbit path shows where the satellite is in the earth's shadow,  

DLR